| time (UTC) | temp F | wind direction | speed knots | gust knots | rain 1hr in | rain 24hr in | rain mn in | humidity % | barometer mb |
| 20260510043810 | 60 | 20 | 7.0 | 9.6 | 0.00 | 0.00 | 0.00 | 36 | 1017.1 |
| 20260510043232 | 60 | 9 | 6.1 | 12.2 | 0.00 | 0.00 | 0.00 | 36 | 1017.0 |
| 20260510043100 | 59 | 17 | 5.2 | 12.2 | 0.00 | 0.00 | 0.00 | 36 | 1016.1 |
| 20260510042800 | 60 | 19 | 6.1 | 12.2 | 0.00 | 0.00 | 0.00 | 36 | 1017.0 |
| 20260510042223 | 60 | 9 | 7.8 | 13.9 | 0.00 | 0.00 | 0.00 | 36 | 1016.9 |
| 20260510041735 | 60 | 360 | 10.4 | 16.5 | 0.00 | 0.00 | 0.00 | 35 | 1016.8 |
| 20260510041536 | 60 | 13 | 10.4 | 16.5 | 0.00 | 0.00 | 0.00 | 35 | 1015.8 |
| 20260510041248 | 61 | 13 | 10.4 | 13.9 | 0.00 | 0.00 | 0.00 | 35 | 1016.6 |
| 20260510040739 | 61 | 21 | 8.7 | 12.2 | 0.00 | 0.00 | 0.00 | 36 | 1016.6 |
| 20260510040222 | 61 | 20 | 8.7 | 12.2 | 0.00 | 0.00 | 0.00 | 35 | 1016.4 |
| 20260510040015 | 61 | 28 | 7.8 | 13.9 | 0.00 | 0.00 | 0.00 | 36 | 1015.5 |
| 20260510035734 | 61 | 13 | 7.8 | 13.9 | 0.00 | 0.00 | 0.00 | 36 | 1016.4 |
| 20260510035241 | 61 | 5 | 8.7 | 13.9 | 0.00 | 0.00 | 0.00 | 35 | 1016.3 |
| 20260510034725 | 62 | 31 | 8.7 | 13.0 | 0.00 | 0.00 | 0.00 | 36 | 1016.3 |
| 20260510034509 | 61 | 11 | 8.7 | 13.0 | 0.00 | 0.00 | 0.00 | 35 | 1015.2 |
| 20260510034238 | 62 | 9 | 8.7 | 13.0 | 0.00 | 0.00 | 0.00 | 35 | 1016.2 |
| 20260510033748 | 62 | 25 | 8.7 | 12.2 | 0.00 | 0.00 | 0.00 | 35 | 1016.0 |
| 20260510033233 | 62 | 9 | 7.0 | 13.0 | 0.00 | 0.00 | 0.00 | 35 | 1015.9 |
| 20260510033012 | 62 | 360 | 8.7 | 13.0 | 0.00 | 0.00 | 0.00 | 35 | 1014.9 |
| 20260510032743 | 63 | 360 | 7.8 | 13.0 | 0.00 | 0.00 | 0.00 | 36 | 1015.8 |
| 20260510032226 | 63 | 360 | 7.8 | 11.3 | 0.00 | 0.00 | 0.00 | 36 | 1015.8 |
| 20260510031738 | 63 | 17 | 7.0 | 13.0 | 0.00 | 0.00 | 0.00 | 35 | 1015.7 |
| 20260510031517 | 62 | 37 | 7.8 | 13.9 | 0.00 | 0.00 | 0.00 | 35 | 1014.7 |
| 20260510031223 | 63 | 20 | 9.6 | 13.9 | 0.00 | 0.00 | 0.00 | 35 | 1015.6 |
| 20260510030728 | 63 | 360 | 9.6 | 13.9 | 0.00 | 0.00 | 0.00 | 35 | 1015.4 |
| 20260510030241 | 63 | 355 | 7.8 | 11.3 | 0.00 | 0.00 | 0.00 | 36 | 1015.3 |
| 20260510030018 | 63 | 26 | 7.8 | 11.3 | 0.00 | 0.00 | 0.00 | 35 | 1014.2 |
| 20260510025726 | 63 | 5 | 6.1 | 8.7 | 0.00 | 0.00 | 0.00 | 36 | 1015.2 |
| 20260510025237 | 64 | 12 | 3.5 | 7.8 | 0.00 | 0.00 | 0.00 | 36 | 1015.1 |
| 20260510024747 | 64 | 9 | 4.3 | 8.7 | 0.00 | 0.00 | 0.00 | 35 | 1015.0 |
| 20260510024532 | 63 | 28 | 4.3 | 9.6 | 0.00 | 0.00 | 0.00 | 35 | 1014.0 |
| 20260510024233 | 64 | 17 | 6.1 | 9.6 | 0.00 | 0.00 | 0.00 | 35 | 1014.9 |
| 20260510023744 | 64 | 355 | 6.1 | 9.6 | 0.00 | 0.00 | 0.00 | 34 | 1014.8 |
| 20260510023225 | 65 | 360 | 7.0 | 11.3 | 0.00 | 0.00 | 0.00 | 34 | 1014.7 |
| 20260510023022 | 64 | 360 | 7.0 | 11.3 | 0.00 | 0.00 | 0.00 | 34 | 1013.6 |
| 20260510022733 | 65 | 360 | 7.8 | 11.3 | 0.00 | 0.00 | 0.00 | 34 | 1014.6 |
| 20260510022306 | 66 | 360 | 7.0 | 10.4 | 0.00 | 0.00 | 0.00 | 33 | 1014.4 |
| 20260510021724 | 66 | 360 | 7.8 | 10.4 | 0.00 | 0.00 | 0.00 | 33 | 1014.3 |
| 20260510021502 | 66 | 355 | 7.0 | 11.3 | 0.00 | 0.00 | 0.00 | 33 | 1013.2 |
| 20260510021235 | 66 | 13 | 7.8 | 11.3 | 0.00 | 0.00 | 0.00 | 33 | 1014.2 |
| 20260510020746 | 67 | 11 | 8.7 | 13.9 | 0.00 | 0.00 | 0.00 | 33 | 1014.1 |
| 20260510020231 | 67 | 5 | 7.8 | 13.9 | 0.00 | 0.00 | 0.00 | 33 | 1014.0 |
| 20260510020004 | 66 | 355 | 9.6 | 13.9 | 0.00 | 0.00 | 0.00 | 33 | 1012.9 |
| 20260510015741 | 67 | 346 | 9.6 | 13.0 | 0.00 | 0.00 | 0.00 | 33 | 1013.9 |
| 20260510015248 | 67 | 18 | 9.6 | 12.2 | 0.00 | 0.00 | 0.00 | 34 | 1013.7 |
| 20260510014729 | 67 | 347 | 9.6 | 13.9 | 0.00 | 0.00 | 0.00 | 34 | 1013.6 |
| 20260510014546 | 67 | 355 | 9.6 | 13.9 | 0.00 | 0.00 | 0.00 | 35 | 1012.5 |
| 20260510014241 | 67 | 360 | 9.6 | 13.9 | 0.00 | 0.00 | 0.00 | 35 | 1013.5 |
| 20260510013752 | 68 | 345 | 8.7 | 16.5 | 0.00 | 0.00 | 0.00 | 35 | 1013.4 |
| 20260510013244 | 68 | 5 | 12.2 | 16.5 | 0.00 | 0.00 | 0.00 | 35 | 1013.2 |
| 20260510013020 | 67 | 360 | 9.6 | 13.9 | 0.00 | 0.00 | 0.00 | 35 | 1012.1 |
| 20260510012726 | 68 | 355 | 8.7 | 13.9 | 0.00 | 0.00 | 0.00 | 36 | 1013.2 |
| 20260510012238 | 68 | 5 | 9.6 | 14.8 | 0.00 | 0.00 | 0.00 | 37 | 1013.1 |
| 20260510011745 | 68 | 355 | 8.7 | 14.8 | 0.00 | 0.00 | 0.00 | 37 | 1013.0 |
| 20260510011556 | 68 | 27 | 9.6 | 14.8 | 0.00 | 0.00 | 0.00 | 37 | 1011.9 |
| 20260510011259 | 68 | 5 | 8.7 | 11.3 | 0.00 | 0.00 | 0.00 | 37 | 1012.9 |
| 20260510010747 | 68 | 5 | 7.8 | 12.2 | 0.00 | 0.00 | 0.00 | 37 | 1012.8 |
| 20260510010232 | 69 | 355 | 8.7 | 12.2 | 0.00 | 0.00 | 0.00 | 37 | 1012.8 |
| 20260510010040 | 68 | 5 | 7.8 | 12.2 | 0.00 | 0.00 | 0.00 | 37 | 1011.7 |
| 20260510005744 | 69 | 17 | 8.7 | 13.9 | 0.00 | 0.00 | 0.00 | 37 | 1012.8 |
| 20260510005227 | 69 | 13 | 10.4 | 13.9 | 0.00 | 0.00 | 0.00 | 37 | 1012.8 |
| 20260510004739 | 69 | 30 | 8.7 | 14.8 | 0.00 | 0.00 | 0.00 | 37 | 1012.6 |
| 20260510004544 | 69 | 360 | 9.6 | 14.8 | 0.00 | 0.00 | 0.00 | 37 | 1011.4 |
| 20260510004247 | 69 | 9 | 10.4 | 14.8 | 0.00 | 0.00 | 0.00 | 38 | 1012.4 |
| 20260510003730 | 69 | 40 | 9.6 | 13.0 | 0.00 | 0.00 | 0.00 | 38 | 1012.4 |
| 20260510003240 | 69 | 26 | 8.7 | 13.9 | 0.00 | 0.00 | 0.00 | 39 | 1012.3 |
| 20260510003049 | 69 | 29 | 8.7 | 13.9 | 0.00 | 0.00 | 0.00 | 39 | 1011.1 |
| 20260510002724 | 70 | 5 | 10.4 | 15.6 | 0.00 | 0.00 | 0.00 | 40 | 1012.2 |
| 20260510002235 | 70 | 12 | 9.6 | 15.6 | 0.00 | 0.00 | 0.00 | 41 | 1012.1 |
| 20260510001747 | 70 | 360 | 10.4 | 14.8 | 0.00 | 0.00 | 0.00 | 42 | 1012.2 |
| 20260510001530 | 69 | 343 | 7.8 | 11.3 | 0.00 | 0.00 | 0.00 | 43 | 1011.1 |
| 20260510001239 | 70 | 344 | 8.7 | 11.3 | 0.00 | 0.00 | 0.00 | 42 | 1012.2 |
| 20260510000722 | 70 | 355 | 7.8 | 13.0 | 0.00 | 0.00 | 0.00 | 43 | 1012.2 |
| 20260510000229 | 70 | 355 | 9.6 | 14.8 | 0.00 | 0.00 | 0.00 | 43 | 1012.2 |
| 20260510000041 | 69 | 343 | 7.8 | 14.8 | 0.00 | 0.00 | 0.00 | 43 | 1011.1 |
| 20260509235741 | 70 | 13 | 11.3 | 14.8 | 0.00 | 0.00 | 0.00 | 42 | 1012.3 |
| 20260509235223 | 70 | 355 | 10.4 | 14.8 | 0.00 | 0.00 | 0.00 | 42 | 1012.3 |
| 20260509234737 | 70 | 340 | 10.4 | 16.5 | 0.00 | 0.00 | 0.00 | 42 | 1012.3 |
| 20260509234546 | 69 | 5 | 8.7 | 17.4 | 0.00 | 0.00 | 0.00 | 42 | 1011.2 |
| 20260509234249 | 70 | 11 | 10.4 | 17.4 | 0.00 | 0.00 | 0.00 | 42 | 1012.3 |
| 20260509233732 | 70 | 27 | 13.0 | 17.4 | 0.00 | 0.00 | 0.00 | 42 | 1012.2 |
| 20260509233242 | 70 | 355 | 12.2 | 17.4 | 0.00 | 0.00 | 0.00 | 42 | 1012.1 |
| 20260509233048 | 70 | 355 | 12.2 | 17.4 | 0.00 | 0.00 | 0.00 | 43 | 1011.0 |
| 20260509232725 | 70 | 340 | 11.3 | 18.2 | 0.00 | 0.00 | 0.00 | 43 | 1012.2 |
| 20260509232234 | 70 | 355 | 10.4 | 20.9 | 0.00 | 0.00 | 0.00 | 43 | 1012.2 |
| 20260509231804 | 70 | 350 | 14.8 | 20.9 | 0.00 | 0.00 | 0.00 | 42 | 1012.0 |
| 20260509231532 | 70 | 17 | 14.8 | 20.9 | 0.00 | 0.00 | 0.00 | 42 | 1010.8 |
| 20260509231230 | 71 | 325 | 13.0 | 20.9 | 0.00 | 0.00 | 0.00 | 42 | 1012.0 |
| 20260509230737 | 71 | 5 | 16.5 | 20.9 | 0.00 | 0.00 | 0.00 | 42 | 1011.8 |
| 20260509230308 | 71 | 355 | 13.0 | 20.0 | 0.00 | 0.00 | 0.00 | 42 | 1011.9 |
| 20260509230012 | 70 | 13 | 14.8 | 20.0 | 0.00 | 0.00 | 0.00 | 42 | 1010.7 |
| 20260509225729 | 71 | 360 | 14.8 | 22.6 | 0.00 | 0.00 | 0.00 | 43 | 1011.8 |
| 20260509225257 | 71 | 355 | 15.6 | 24.3 | 0.00 | 0.00 | 0.00 | 43 | 1011.8 |
| 20260509224722 | 71 | 346 | 17.4 | 24.3 | 0.00 | 0.00 | 0.00 | 42 | 1011.8 |
| 20260509224547 | 71 | 349 | 15.6 | 22.6 | 0.00 | 0.00 | 0.00 | 43 | 1010.5 |
| 20260509224234 | 72 | 355 | 14.8 | 22.6 | 0.00 | 0.00 | 0.00 | 42 | 1011.7 |
| 20260509223746 | 72 | 360 | 14.8 | 20.9 | 0.00 | 0.00 | 0.00 | 42 | 1011.6 |
| 20260509223231 | 72 | 15 | 10.4 | 19.1 | 0.00 | 0.00 | 0.00 | 42 | 1011.6 |
| 20260509223052 | 72 | 348 | 11.3 | 19.1 | 0.00 | 0.00 | 0.00 | 41 | 1010.5 |
| 20260509222803 | 73 | 360 | 13.9 | 19.1 | 0.00 | 0.00 | 0.00 | 41 | 1011.6 |
| 20260509222224 | 73 | 355 | 13.0 | 18.2 | 0.00 | 0.00 | 0.00 | 41 | 1011.6 |
| 20260509221753 | 74 | 339 | 13.0 | 20.9 | 0.00 | 0.00 | 0.00 | 40 | 1011.6 |
| 20260509221510 | 73 | 24 | 13.0 | 20.9 | 0.00 | 0.00 | 0.00 | 40 | 1010.4 |
| 20260509221245 | 73 | 9 | 13.0 | 20.9 | 0.00 | 0.00 | 0.00 | 42 | 1011.6 |
| 20260509220734 | 72 | 355 | 14.8 | 20.0 | 0.00 | 0.00 | 0.00 | 41 | 1011.5 |
| 20260509220245 | 72 | 360 | 12.2 | 20.9 | 0.00 | 0.00 | 0.00 | 41 | 1011.4 |
| 20260509220029 | 71 | 343 | 12.2 | 20.9 | 0.00 | 0.00 | 0.00 | 42 | 1010.3 |
| 20260509215728 | 72 | 355 | 14.8 | 20.9 | 0.00 | 0.00 | 0.00 | 41 | 1011.4 |
| 20260509215242 | 72 | 34 | 15.6 | 20.9 | 0.00 | 0.00 | 0.00 | 40 | 1011.4 |
| 20260509214721 | 71 | 18 | 15.6 | 20.0 | 0.00 | 0.00 | 0.00 | 40 | 1011.2 |
| 20260509214535 | 71 | 328 | 13.0 | 20.0 | 0.00 | 0.00 | 0.00 | 40 | 1010.2 |
| 20260509214251 | 71 | 355 | 13.9 | 20.0 | 0.00 | 0.00 | 0.00 | 39 | 1011.3 |
| 20260509213733 | 72 | 360 | 12.2 | 18.2 | 0.00 | 0.00 | 0.00 | 39 | 1011.2 |
| 20260509213245 | 72 | 333 | 12.2 | 20.9 | 0.00 | 0.00 | 0.00 | 39 | 1011.2 |
| 20260509213034 | 71 | 355 | 12.2 | 20.9 | 0.00 | 0.00 | 0.00 | 38 | 1010.0 |
| 20260509212728 | 72 | 360 | 14.8 | 20.0 | 0.00 | 0.00 | 0.00 | 37 | 1011.1 |
| 20260509212239 | 72 | 19 | 14.8 | 20.0 | 0.00 | 0.00 | 0.00 | 37 | 1011.0 |
| 20260509211723 | 72 | 15 | 15.6 | 24.3 | 0.00 | 0.00 | 0.00 | 37 | 1010.9 |
| 20260509211546 | 72 | 344 | 14.8 | 24.3 | 0.00 | 0.00 | 0.00 | 37 | 1009.7 |
| 20260509211237 | 73 | 355 | 18.2 | 24.3 | 0.00 | 0.00 | 0.00 | 37 | 1010.8 |
| 20260509210802 | 73 | 9 | 14.8 | 20.9 | 0.00 | 0.00 | 0.00 | 37 | 1010.8 |
| 20260509210223 | 73 | 346 | 13.9 | 26.9 | 0.00 | 0.00 | 0.00 | 38 | 1010.8 |
| 20260509210029 | 72 | 345 | 14.8 | 26.9 | 0.00 | 0.00 | 0.00 | 38 | 1009.5 |
| 20260509205736 | 73 | 355 | 17.4 | 26.9 | 0.00 | 0.00 | 0.00 | 37 | 1010.6 |
| 20260509205247 | 74 | 355 | 19.1 | 26.1 | 0.00 | 0.00 | 0.00 | 36 | 1010.4 |
| 20260509204730 | 75 | 360 | 16.5 | 20.9 | 0.00 | 0.00 | 0.00 | 34 | 1010.3 |
| 20260509204532 | 75 | 348 | 16.5 | 20.9 | 0.00 | 0.00 | 0.00 | 34 | 1009.1 |
| 20260509204244 | 76 | 347 | 16.5 | 21.7 | 0.00 | 0.00 | 0.00 | 32 | 1010.2 |
| 20260509203727 | 76 | 5 | 14.8 | 21.7 | 0.00 | 0.00 | 0.00 | 31 | 1010.2 |
| 20260509203240 | 77 | 13 | 12.2 | 19.1 | 0.00 | 0.00 | 0.00 | 30 | 1010.0 |
| 20260509203032 | 77 | 39 | 13.0 | 19.1 | 0.00 | 0.00 | 0.00 | 29 | 1009.0 |
| 20260509202747 | 78 | 342 | 13.0 | 19.1 | 0.00 | 0.00 | 0.00 | 28 | 1010.1 |
| 20260509202231 | 79 | 360 | 11.3 | 17.4 | 0.00 | 0.00 | 0.00 | 29 | 1009.9 |
| 20260509201740 | 79 | 355 | 13.9 | 19.1 | 0.00 | 0.00 | 0.00 | 27 | 1009.9 |
| 20260509201526 | 78 | 10 | 10.4 | 19.1 | 0.00 | 0.00 | 0.00 | 28 | 1008.7 |
| 20260509201224 | 80 | 15 | 14.8 | 19.1 | 0.00 | 0.00 | 0.00 | 26 | 1009.8 |
| 20260509200735 | 80 | 319 | 7.0 | 15.6 | 0.00 | 0.00 | 0.00 | 27 | 1009.7 |
| 20260509200308 | 80 | 360 | 8.7 | 15.6 | 0.00 | 0.00 | 0.00 | 24 | 1009.8 |
| 20260509200012 | 80 | 339 | 7.8 | 15.6 | 0.00 | 0.00 | 0.00 | 27 | 1008.6 |
| 20260509195730 | 79 | 325 | 3.5 | 14.8 | 0.00 | 0.00 | 0.00 | 26 | 1009.8 |
| 20260509195234 | 79 | 355 | 8.7 | 16.5 | 0.00 | 0.00 | 0.00 | 27 | 1009.8 |
| 20260509194746 | 80 | 342 | 7.0 | 16.5 | 0.00 | 0.00 | 0.00 | 25 | 1009.7 |
| 20260509194522 | 79 | 41 | 6.1 | 13.9 | 0.00 | 0.00 | 0.00 | 26 | 1008.5 |
| 20260509194231 | 80 | 334 | 10.4 | 13.9 | 0.00 | 0.00 | 0.00 | 26 | 1009.7 |
| 20260509193738 | 79 | 9 | 7.0 | 13.9 | 0.00 | 0.00 | 0.00 | 26 | 1009.7 |
| 20260509193224 | 79 | 315 | 7.8 | 13.9 | 0.00 | 0.00 | 0.00 | 27 | 1009.7 |
| 20260509193026 | 80 | 329 | 6.1 | 12.2 | 0.00 | 0.00 | 0.00 | 29 | 1008.5 |
| 20260509192734 | 80 | 313 | 7.8 | 12.2 | 0.00 | 0.00 | 0.00 | 26 | 1009.7 |
| 20260509192243 | 80 | 355 | 8.7 | 12.2 | 0.00 | 0.00 | 0.00 | 26 | 1009.7 |
| 20260509191731 | 79 | 5 | 5.2 | 12.2 | 0.00 | 0.00 | 0.00 | 25 | 1009.6 |
| 20260509191506 | 79 | 24 | 5.2 | 12.2 | 0.00 | 0.00 | 0.00 | 25 | 1008.4 |
| 20260509191240 | 80 | 5 | 7.0 | 12.2 | 0.00 | 0.00 | 0.00 | 24 | 1009.6 |
| 20260509190722 | 78 | 32 | 4.3 | 11.3 | 0.00 | 0.00 | 0.00 | 29 | 1009.6 |
| 20260509190232 | 77 | 306 | 5.2 | 11.3 | 0.00 | 0.00 | 0.00 | 28 | 1009.6 |
| 20260509190009 | 77 | 343 | 3.5 | 13.9 | 0.00 | 0.00 | 0.00 | 27 | 1008.5 |
| 20260509185744 | 77 | 314 | 6.1 | 13.9 | 0.00 | 0.00 | 0.00 | 27 | 1009.7 |
| 20260509185227 | 78 | 355 | 8.7 | 13.9 | 0.00 | 0.00 | 0.00 | 25 | 1009.7 |
| 20260509184740 | 77 | 12 | 4.3 | 14.8 | 0.00 | 0.00 | 0.00 | 27 | 1009.8 |
| 20260509184520 | 77 | 355 | 5.2 | 14.8 | 0.00 | 0.00 | 0.00 | 27 | 1008.6 |
| 20260509184224 | 77 | 323 | 8.7 | 14.8 | 0.00 | 0.00 | 0.00 | 27 | 1009.7 |
| 20260509183734 | 78 | 341 | 9.6 | 15.6 | 0.00 | 0.00 | 0.00 | 27 | 1009.8 |
| 20260509183241 | 78 | 328 | 10.4 | 17.4 | 0.00 | 0.00 | 0.00 | 27 | 1009.8 |
| 20260509183017 | 77 | 355 | 7.0 | 17.4 | 0.00 | 0.00 | 0.00 | 26 | 1008.6 |
| 20260509182725 | 78 | 360 | 12.2 | 17.4 | 0.00 | 0.00 | 0.00 | 27 | 1009.7 |
| 20260509182238 | 78 | 5 | 7.0 | 15.6 | 0.00 | 0.00 | 0.00 | 27 | 1009.7 |
| 20260509181722 | 77 | 11 | 11.3 | 15.6 | 0.00 | 0.00 | 0.00 | 29 | 1009.6 |
| 20260509181511 | 76 | 346 | 9.6 | 14.8 | 0.00 | 0.00 | 0.00 | 29 | 1008.4 |
| 20260509181254 | 76 | 336 | 11.3 | 14.8 | 0.00 | 0.00 | 0.00 | 29 | 1009.5 |
| 20260509180743 | 76 | 345 | 7.8 | 16.5 | 0.00 | 0.00 | 0.00 | 28 | 1009.5 |
| 20260509180227 | 76 | 9 | 12.2 | 16.5 | 0.00 | 0.00 | 0.00 | 28 | 1009.5 |
| 20260509180108 | 76 | 355 | 9.6 | 16.5 | 0.00 | 0.00 | 0.00 | 29 | 1008.2 |
| 20260509175735 | 77 | 360 | 7.0 | 14.8 | 0.00 | 0.00 | 0.00 | 28 | 1009.5 |
| 20260509175247 | 77 | 14 | 7.0 | 13.0 | 0.00 | 0.00 | 0.00 | 28 | 1009.4 |
| 20260509174732 | 76 | 14 | 9.6 | 14.8 | 0.00 | 0.00 | 0.00 | 29 | 1009.5 |
| 20260509174505 | 76 | 350 | 5.2 | 16.5 | 0.00 | 0.00 | 0.00 | 29 | 1008.3 |
| 20260509174246 | 77 | 355 | 8.7 | 16.5 | 0.00 | 0.00 | 0.00 | 28 | 1009.4 |
| 20260509173726 | 77 | 339 | 9.6 | 16.5 | 0.00 | 0.00 | 0.00 | 30 | 1009.4 |
| 20260509173236 | 77 | 349 | 9.6 | 16.5 | 0.00 | 0.00 | 0.00 | 28 | 1009.5 |
| 20260509173007 | 77 | 17 | 7.0 | 16.5 | 0.00 | 0.00 | 0.00 | 29 | 1008.3 |
| 20260509172806 | 77 | 340 | 8.7 | 16.5 | 0.00 | 0.00 | 0.00 | 32 | 1009.5 |
| 20260509172229 | 77 | 15 | 8.7 | 13.0 | 0.00 | 0.00 | 0.00 | 30 | 1009.6 |
| 20260509171739 | 76 | 355 | 9.6 | 13.0 | 0.00 | 0.00 | 0.00 | 29 | 1009.5 |
| 20260509171556 | 76 | 17 | 9.6 | 12.2 | 0.00 | 0.00 | 0.00 | 30 | 1008.3 |
| 20260509171251 | 77 | 313 | 6.1 | 11.3 | 0.00 | 0.00 | 0.00 | 33 | 1009.5 |
| 20260509170733 | 76 | 13 | 4.3 | 11.3 | 0.00 | 0.00 | 0.00 | 34 | 1009.6 |
| 20260509170244 | 76 | 55 | 2.6 | 12.2 | 0.00 | 0.00 | 0.00 | 36 | 1009.7 |
| 20260509170059 | 75 | 336 | 3.5 | 13.0 | 0.00 | 0.00 | 0.00 | 33 | 1008.5 |
| 20260509165727 | 75 | 61 | 6.1 | 13.0 | 0.00 | 0.00 | 0.00 | 34 | 1009.7 |
| 20260509165240 | 75 | 331 | 9.6 | 12.2 | 0.00 | 0.00 | 0.00 | 32 | 1009.7 |
| 20260509164724 | 74 | 38 | 8.7 | 13.9 | 0.00 | 0.00 | 0.00 | 32 | 1009.7 |
| 20260509164555 | 74 | 5 | 7.8 | 13.9 | 0.00 | 0.00 | 0.00 | 32 | 1008.5 |
| 20260509164237 | 74 | 40 | 9.6 | 13.9 | 0.00 | 0.00 | 0.00 | 33 | 1009.7 |
| 20260509163745 | 74 | 355 | 8.7 | 13.9 | 0.00 | 0.00 | 0.00 | 31 | 1009.6 |
| 20260509163228 | 74 | 15 | 9.6 | 13.9 | 0.00 | 0.00 | 0.00 | 32 | 1009.6 |
| 20260509163003 | 74 | 5 | 9.6 | 13.9 | 0.00 | 0.00 | 0.00 | 37 | 1008.4 |
| 20260509162740 | 74 | 355 | 7.8 | 13.9 | 0.00 | 0.00 | 0.00 | 35 | 1009.5 |
| 20260509162222 | 73 | 21 | 8.7 | 14.8 | 0.00 | 0.00 | 0.00 | 34 | 1009.5 |
| 20260509161734 | 73 | 38 | 8.7 | 14.8 | 0.00 | 0.00 | 0.00 | 34 | 1009.5 |
| 20260509161512 | 73 | 5 | 10.4 | 13.9 | 0.00 | 0.00 | 0.00 | 33 | 1008.3 |
| 20260509161247 | 74 | 20 | 9.6 | 13.9 | 0.00 | 0.00 | 0.00 | 34 | 1009.6 |
| 20260509160731 | 73 | 355 | 7.8 | 16.5 | 0.00 | 0.00 | 0.00 | 36 | 1009.5 |
| 20260509160242 | 72 | 5 | 11.3 | 19.1 | 0.00 | 0.00 | 0.00 | 36 | 1009.6 |
| 20260509160053 | 71 | 5 | 13.0 | 19.1 | 0.00 | 0.00 | 0.00 | 33 | 1008.3 |
| 20260509155749 | 72 | 344 | 13.0 | 19.1 | 0.00 | 0.00 | 0.00 | 34 | 1009.5 |
| 20260509155239 | 72 | 339 | 9.6 | 16.5 | 0.00 | 0.00 | 0.00 | 36 | 1009.6 |
| 20260509154723 | 72 | 15 | 11.3 | 15.6 | 0.00 | 0.00 | 0.00 | 35 | 1009.6 |
| 20260509154544 | 71 | 346 | 9.6 | 15.6 | 0.00 | 0.00 | 0.00 | 36 | 1008.4 |
| 20260509154237 | 72 | 5 | 11.3 | 17.4 | 0.00 | 0.00 | 0.00 | 35 | 1009.6 |
| 20260509153748 | 72 | 338 | 10.4 | 17.4 | 0.00 | 0.00 | 0.00 | 36 | 1009.7 |
| 20260509153230 | 72 | 332 | 12.2 | 20.0 | 0.00 | 0.00 | 0.00 | 36 | 1009.6 |
| 20260509153045 | 72 | 360 | 11.3 | 20.0 | 0.00 | 0.00 | 0.00 | 34 | 1008.5 |
| 20260509152743 | 74 | 11 | 14.8 | 20.0 | 0.00 | 0.00 | 0.00 | 34 | 1009.6 |
| 20260509152224 | 73 | 329 | 5.2 | 23.5 | 0.00 | 0.00 | 0.00 | 36 | 1009.5 |
| 20260509151735 | 74 | 323 | 14.8 | 23.5 | 0.00 | 0.00 | 0.00 | 34 | 1009.5 |
| 20260509151555 | 74 | 329 | 8.7 | 13.0 | 0.00 | 0.00 | 0.00 | 36 | 1008.4 |
| 20260509151246 | 73 | 336 | 7.0 | 9.6 | 0.00 | 0.00 | 0.00 | 36 | 1009.1 |
| 20260509150727 | 72 | 209 | 7.8 | 9.6 | 0.00 | 0.00 | 0.00 | 37 | 1008.7 |
| 20260509150259 | 72 | 227 | 6.1 | 11.3 | 0.00 | 0.00 | 0.00 | 38 | 1008.7 |
| 20260509150030 | 71 | 227 | 6.1 | 9.6 | 0.00 | 0.00 | 0.00 | 38 | 1007.5 |
| 20260509145746 | 72 | 228 | 6.1 | 9.6 | 0.00 | 0.00 | 0.00 | 40 | 1008.6 |
| 20260509145231 | 70 | 182 | 5.2 | 7.8 | 0.00 | 0.00 | 0.00 | 40 | 1008.8 |
| 20260509144735 | 69 | 210 | 5.2 | 8.7 | 0.00 | 0.00 | 0.00 | 39 | 1008.8 |
| 20260509144603 | 68 | 214 | 5.2 | 8.7 | 0.00 | 0.00 | 0.00 | 41 | 1007.7 |
| 20260509144500 | 68 | 209 | 5.2 | 9.6 | 0.00 | 0.00 | 0.00 | 42 | 1007.7 |
| 20260509144245 | 69 | 220 | 6.1 | 9.6 | 0.00 | 0.00 | 0.00 | 40 | 1008.8 |
| 20260509143733 | 69 | 216 | 6.1 | 9.6 | 0.00 | 0.00 | 0.00 | 39 | 1008.7 |
| 20260509143244 | 69 | 220 | 5.2 | 8.7 | 0.00 | 0.00 | 0.00 | 41 | 1008.8 |
| 20260509143028 | 68 | 200 | 5.2 | 8.7 | 0.00 | 0.00 | 0.00 | 40 | 1007.7 |
| 20260509142733 | 69 | 223 | 7.0 | 8.7 | 0.00 | 0.00 | 0.00 | 38 | 1008.9 |
| 20260509142242 | 69 | 174 | 5.2 | 10.4 | 0.00 | 0.00 | 0.00 | 40 | 1008.9 |
| 20260509141724 | 67 | 205 | 7.8 | 10.4 | 0.00 | 0.00 | 0.00 | 39 | 1009.0 |
| 20260509141541 | 67 | 207 | 7.0 | 10.4 | 0.00 | 0.00 | 0.00 | 38 | 1008.0 |
| 20260509141233 | 67 | 200 | 6.1 | 8.7 | 0.00 | 0.00 | 0.00 | 41 | 1008.9 |
| 20260509140743 | 66 | 219 | 5.2 | 8.7 | 0.00 | 0.00 | 0.00 | 41 | 1008.9 |
| 20260509140224 | 66 | 217 | 5.2 | 7.0 | 0.00 | 0.00 | 0.00 | 44 | 1008.9 |
| 20260509140035 | 65 | 233 | 4.3 | 7.8 | 0.00 | 0.00 | 0.00 | 44 | 1007.8 |
| 20260509135735 | 65 | 221 | 4.3 | 7.0 | 0.00 | 0.00 | 0.00 | 44 | 1008.9 |
| 20260509135245 | 64 | 238 | 5.2 | 7.8 | 0.00 | 0.00 | 0.00 | 44 | 1008.9 |
| 20260509134725 | 64 | 220 | 5.2 | 7.8 | 0.00 | 0.00 | 0.00 | 45 | 1008.8 |
| 20260509134533 | 63 | 208 | 3.5 | 7.8 | 0.00 | 0.00 | 0.00 | 46 | 1007.8 |
| 20260509134238 | 64 | 228 | 5.2 | 7.8 | 0.00 | 0.00 | 0.00 | 47 | 1008.8 |
| 20260509133743 | 63 | 229 | 5.2 | 8.7 | 0.00 | 0.00 | 0.00 | 47 | 1008.7 |
| 20260509133225 | 62 | 227 | 6.1 | 8.7 | 0.00 | 0.00 | 0.00 | 49 | 1008.8 |
| 20260509133038 | 61 | 217 | 4.3 | 7.8 | 0.00 | 0.00 | 0.00 | 50 | 1007.7 |
| 20260509132737 | 61 | 209 | 5.2 | 7.8 | 0.00 | 0.00 | 0.00 | 51 | 1008.8 |
| 20260509132251 | 60 | 197 | 4.3 | 6.1 | 0.00 | 0.00 | 0.00 | 55 | 1008.8 |
| 20260509131734 | 59 | 219 | 4.3 | 6.1 | 0.00 | 0.00 | 0.00 | 56 | 1008.8 |
| 20260509131549 | 58 | 215 | 4.3 | 6.1 | 0.00 | 0.00 | 0.00 | 55 | 1007.8 |
| 20260509131305 | 58 | 213 | 2.6 | 5.2 | 0.00 | 0.00 | 0.00 | 56 | 1008.8 |
| 20260509130725 | 57 | 213 | 3.5 | 6.1 | 0.00 | 0.00 | 0.00 | 57 | 1008.8 |
| 20260509130237 | 56 | 224 | 4.3 | 6.1 | 0.00 | 0.00 | 0.00 | 58 | 1008.8 |
| 20260509130036 | 55 | 217 | 3.5 | 5.2 | 0.00 | 0.00 | 0.00 | 60 | 1007.8 |
| 20260509125744 | 55 | 255 | 3.5 | 6.1 | 0.00 | 0.00 | 0.00 | 60 | 1008.8 |
| 20260509125227 | 54 | 239 | 3.5 | 4.3 | 0.00 | 0.00 | 0.00 | 61 | 1008.8 |
| 20260509124739 | 53 | 229 | 2.6 | 4.3 | 0.00 | 0.00 | 0.00 | 64 | 1008.7 |
| 20260509124540 | 53 | 219 | 2.6 | 4.3 | 0.00 | 0.00 | 0.00 | 64 | 1007.8 |
| 20260509124252 | 53 | 219 | 2.6 | 6.1 | 0.00 | 0.00 | 0.00 | 64 | 1008.8 |
| 20260509123733 | 52 | 219 | 3.5 | 6.1 | 0.00 | 0.00 | 0.00 | 64 | 1008.7 |
| 20260509123246 | 52 | 218 | 3.5 | 5.2 | 0.00 | 0.00 | 0.00 | 65 | 1008.7 |
| 20260509123050 | 51 | 221 | 2.6 | 4.3 | 0.00 | 0.00 | 0.00 | 65 | 1007.7 |
| 20260509122730 | 51 | 221 | 3.5 | 4.3 | 0.00 | 0.00 | 0.00 | 65 | 1008.7 |
| 20260509122242 | 51 | 227 | 3.5 | 5.2 | 0.00 | 0.00 | 0.00 | 65 | 1008.7 |
| 20260509121722 | 51 | 211 | 4.3 | 5.2 | 0.00 | 0.00 | 0.00 | 64 | 1008.6 |
| 20260509121546 | 50 | 216 | 3.5 | 5.2 | 0.00 | 0.00 | 0.00 | 64 | 1007.6 |
| 20260509121236 | 50 | 224 | 3.5 | 5.2 | 0.00 | 0.00 | 0.00 | 64 | 1008.6 |
| 20260509120747 | 50 | 227 | 3.5 | 6.1 | 0.00 | 0.00 | 0.00 | 64 | 1008.6 |
| 20260509120238 | 50 | 225 | 4.3 | 6.1 | 0.00 | 0.00 | 0.00 | 64 | 1008.7 |
| 20260509120037 | 49 | 230 | 3.5 | 6.1 | 0.00 | 0.00 | 0.00 | 64 | 1007.6 |
| 20260509115751 | 49 | 219 | 4.3 | 5.2 | 0.00 | 0.00 | 0.00 | 65 | 1008.6 |
| 20260509115242 | 49 | 215 | 3.5 | 5.2 | 0.00 | 0.00 | 0.00 | 64 | 1008.4 |
| 20260509114725 | 49 | 215 | 3.5 | 5.2 | 0.00 | 0.00 | 0.00 | 65 | 1008.4 |
| 20260509114517 | 48 | 207 | 2.6 | 5.2 | 0.00 | 0.00 | 0.00 | 65 | 1007.3 |
| 20260509114255 | 49 | 207 | 3.5 | 5.2 | 0.00 | 0.00 | 0.00 | 64 | 1008.3 |
| 20260509113745 | 49 | 207 | 4.3 | 5.2 | 0.00 | 0.00 | 0.00 | 64 | 1008.3 |
| 20260509113229 | 49 | 221 | 4.3 | 5.2 | 0.00 | 0.00 | 0.00 | 65 | 1008.3 |
| 20260509113005 | 48 | 214 | 3.5 | 5.2 | 0.00 | 0.00 | 0.00 | 64 | 1007.3 |
| 20260509112740 | 49 | 214 | 3.5 | 4.3 | 0.00 | 0.00 | 0.00 | 64 | 1008.3 |
| 20260509112222 | 49 | 219 | 3.5 | 4.3 | 0.00 | 0.00 | 0.00 | 64 | 1008.2 |
| 20260509111735 | 49 | 224 | 3.5 | 4.3 | 0.00 | 0.00 | 0.00 | 63 | 1008.2 |
| 20260509111512 | 48 | 221 | 2.6 | 4.3 | 0.00 | 0.00 | 0.00 | 63 | 1007.1 |
| 20260509111248 | 49 | 227 | 2.6 | 4.3 | 0.00 | 0.00 | 0.00 | 63 | 1008.1 |
| 20260509110732 | 49 | 227 | 2.6 | 4.3 | 0.00 | 0.00 | 0.00 | 63 | 1008.0 |
| 20260509110305 | 49 | 225 | 2.6 | 4.3 | 0.00 | 0.00 | 0.00 | 64 | 1008.1 |
| 20260509110031 | 48 | 236 | 2.6 | 5.2 | 0.00 | 0.00 | 0.00 | 64 | 1007.0 |
| 20260509105727 | 49 | 234 | 3.5 | 5.2 | 0.00 | 0.00 | 0.00 | 64 | 1008.2 |
| 20260509105257 | 49 | 221 | 3.5 | 5.2 | 0.00 | 0.00 | 0.00 | 65 | 1008.2 |
| 20260509104808 | 49 | 225 | 3.5 | 5.2 | 0.00 | 0.00 | 0.00 | 65 | 1008.2 |
| 20260509104556 | 48 | 220 | 3.5 | 5.2 | 0.00 | 0.00 | 0.00 | 65 | 1007.1 |
| 20260509104234 | 49 | 217 | 3.5 | 5.2 | 0.00 | 0.00 | 0.00 | 66 | 1008.2 |
| 20260509103741 | 49 | 221 | 4.3 | 5.2 | 0.00 | 0.00 | 0.00 | 66 | 1008.2 |
| 20260509103223 | 49 | 218 | 4.3 | 6.1 | 0.00 | 0.00 | 0.00 | 66 | 1008.2 |
| 20260509103056 | 49 | 217 | 3.5 | 6.1 | 0.00 | 0.00 | 0.00 | 66 | 1007.1 |
| 20260509102734 | 49 | 220 | 4.3 | 6.1 | 0.00 | 0.00 | 0.00 | 66 | 1008.1 |
| 20260509102306 | 50 | 215 | 5.2 | 7.0 | 0.00 | 0.00 | 0.00 | 65 | 1008.1 |
| 20260509101726 | 50 | 227 | 4.3 | 7.0 | 0.00 | 0.00 | 0.00 | 65 | 1008.2 |
| 20260509101508 | 49 | 227 | 4.3 | 7.0 | 0.00 | 0.00 | 0.00 | 64 | 1007.1 |
| 20260509101240 | 50 | 233 | 5.2 | 7.0 | 0.00 | 0.00 | 0.00 | 64 | 1008.2 |
| 20260509100721 | 50 | 228 | 4.3 | 7.0 | 0.00 | 0.00 | 0.00 | 64 | 1008.1 |
| 20260509100230 | 50 | 224 | 4.3 | 6.1 | 0.00 | 0.00 | 0.00 | 64 | 1008.1 |
| 20260509100012 | 50 | 221 | 3.5 | 6.1 | 0.00 | 0.00 | 0.00 | 64 | 1007.1 |
| 20260509095739 | 50 | 220 | 4.3 | 6.1 | 0.00 | 0.00 | 0.00 | 63 | 1008.2 |
| 20260509095222 | 50 | 215 | 4.3 | 6.1 | 0.00 | 0.00 | 0.00 | 62 | 1008.2 |
| 20260509094733 | 50 | 238 | 5.2 | 6.1 | 0.00 | 0.00 | 0.00 | 60 | 1008.3 |
| 20260509094511 | 50 | 227 | 3.5 | 5.2 | 0.00 | 0.00 | 0.00 | 60 | 1007.2 |
| 20260509094246 | 50 | 215 | 3.5 | 5.2 | 0.00 | 0.00 | 0.00 | 59 | 1008.3 |
| 20260509093727 | 51 | 215 | 3.5 | 5.2 | 0.00 | 0.00 | 0.00 | 59 | 1008.2 |
| 20260509093240 | 51 | 215 | 3.5 | 6.1 | 0.00 | 0.00 | 0.00 | 58 | 1008.2 |
| 20260509093015 | 51 | 208 | 3.5 | 6.1 | 0.00 | 0.00 | 0.00 | 58 | 1007.2 |
| 20260509092806 | 51 | 211 | 4.3 | 6.1 | 0.00 | 0.00 | 0.00 | 57 | 1008.3 |
| 20260509092227 | 52 | 186 | 5.2 | 6.1 | 0.00 | 0.00 | 0.00 | 56 | 1008.3 |
| 20260509091738 | 52 | 207 | 4.3 | 5.2 | 0.00 | 0.00 | 0.00 | 56 | 1008.2 |
| 20260509091603 | 51 | 211 | 3.5 | 5.2 | 0.00 | 0.00 | 0.00 | 56 | 1007.1 |
| 20260509091250 | 52 | 211 | 4.3 | 5.2 | 0.00 | 0.00 | 0.00 | 56 | 1008.2 |
| 20260509090731 | 52 | 217 | 4.3 | 5.2 | 0.00 | 0.00 | 0.00 | 56 | 1008.2 |
| 20260509090242 | 52 | 203 | 4.3 | 5.2 | 0.00 | 0.00 | 0.00 | 55 | 1008.2 |
| 20260509090042 | 52 | 193 | 3.5 | 4.3 | 0.00 | 0.00 | 0.00 | 54 | 1007.0 |
| 20260509085723 | 53 | 197 | 4.3 | 4.3 | 0.00 | 0.00 | 0.00 | 53 | 1008.1 |
| 20260509085235 | 54 | 202 | 2.6 | 3.5 | 0.00 | 0.00 | 0.00 | 52 | 1008.2 |
| 20260509084802 | 55 | 209 | 2.6 | 3.5 | 0.00 | 0.00 | 0.00 | 51 | 1008.1 |
| 20260509084516 | 54 | 238 | 1.7 | 3.5 | 0.00 | 0.00 | 0.00 | 50 | 1007.0 |
| 20260509084227 | 55 | 253 | 2.6 | 3.5 | 0.00 | 0.00 | 0.00 | 50 | 1008.0 |
| 20260509083736 | 55 | 275 | 2.6 | 3.5 | 0.00 | 0.00 | 0.00 | 50 | 1008.0 |
| 20260509083249 | 55 | 281 | 2.6 | 3.5 | 0.00 | 0.00 | 0.00 | 50 | 1007.9 |
| 20260509083031 | 55 | 288 | 1.7 | 3.5 | 0.00 | 0.00 | 0.00 | 49 | 1006.8 |
| 20260509082729 | 55 | 283 | 2.6 | 3.5 | 0.00 | 0.00 | 0.00 | 49 | 1008.0 |
| 20260509082258 | 56 | 295 | 2.6 | 4.3 | 0.00 | 0.00 | 0.00 | 49 | 1007.9 |
| 20260509081749 | 56 | 287 | 2.6 | 4.3 | 0.00 | 0.00 | 0.00 | 48 | 1007.9 |
| 20260509081601 | 55 | 294 | 2.6 | 4.3 | 0.00 | 0.00 | 0.00 | 48 | 1006.8 |
| 20260509081230 | 56 | 297 | 2.6 | 3.5 | 0.00 | 0.00 | 0.00 | 48 | 1007.9 |
| 20260509080739 | 56 | 250 | 2.6 | 3.5 | 0.00 | 0.00 | 0.00 | 48 | 1007.9 |
| 20260509080223 | 56 | 250 | 2.6 | 3.5 | 0.00 | 0.00 | 0.00 | 48 | 1007.9 |
| 20260509080005 | 56 | 211 | 1.7 | 3.5 | 0.00 | 0.00 | 0.00 | 48 | 1006.8 |
| 20260509075734 | 57 | 211 | 1.7 | 3.5 | 0.00 | 0.00 | 0.00 | 47 | 1007.9 |
| 20260509075246 | 57 | 243 | 2.6 | 4.3 | 0.00 | 0.00 | 0.00 | 46 | 1008.0 |
| 20260509074728 | 58 | 300 | 2.6 | 4.3 | 0.00 | 0.00 | 0.00 | 45 | 1007.9 |
| 20260509074602 | 57 | 303 | 2.6 | 4.3 | 0.00 | 0.00 | 0.00 | 45 | 1006.8 |
| 20260509074300 | 58 | 314 | 3.5 | 4.3 | 0.00 | 0.00 | 0.00 | 44 | 1008.0 |
| 20260509073745 | 59 | 311 | 2.6 | 4.3 | 0.00 | 0.00 | 0.00 | 44 | 1007.9 |
| 20260509073225 | 59 | 300 | 2.6 | 4.3 | 0.00 | 0.00 | 0.00 | 43 | 1008.0 |
| 20260509073048 | 59 | 305 | 1.7 | 3.5 | 0.00 | 0.00 | 0.00 | 43 | 1006.9 |
| 20260509072737 | 59 | 340 | 1.7 | 4.3 | 0.00 | 0.00 | 0.00 | 42 | 1007.9 |
| 20260509072246 | 59 | 315 | 1.7 | 4.3 | 0.00 | 0.00 | 0.00 | 42 | 1008.0 |
| 20260509071730 | 60 | 333 | 1.7 | 7.0 | 0.00 | 0.00 | 0.00 | 42 | 1008.0 |
| 20260509071526 | 59 | 337 | 1.7 | 7.0 | 0.00 | 0.00 | 0.00 | 42 | 1006.8 |
| 20260509071241 | 60 | 319 | 3.5 | 7.0 | 0.00 | 0.00 | 0.00 | 42 | 1008.0 |
| 20260509070810 | 60 | 310 | 4.3 | 8.7 | 0.00 | 0.00 | 0.00 | 42 | 1008.0 |
| 20260509070227 | 60 | 321 | 5.2 | 8.7 | 0.00 | 0.00 | 0.00 | 42 | 1008.0 |
| 20260509065739 | 60 | 325 | 5.2 | 8.7 | 0.00 | 0.00 | 0.00 | 42 | 1008.0 |
| 20260509065221 | 61 | 330 | 5.2 | 7.8 | 0.00 | 0.00 | 0.00 | 41 | 1008.1 |
| 20260509064732 | 61 | 334 | 6.1 | 8.7 | 0.00 | 0.00 | 0.00 | 41 | 1008.1 |
| 20260509064536 | 60 | 306 | 6.1 | 8.7 | 0.00 | 0.00 | 0.00 | 41 | 1007.1 |
| 20260509064245 | 61 | 318 | 6.1 | 8.7 | 0.00 | 0.00 | 0.00 | 41 | 1008.2 |
| 20260509063729 | 61 | 333 | 4.3 | 7.8 | 0.00 | 0.00 | 0.00 | 41 | 1008.2 |
| 20260509063300 | 62 | 301 | 5.2 | 8.7 | 0.00 | 0.00 | 0.00 | 40 | 1008.2 |
| 20260509063011 | 61 | 329 | 5.2 | 8.7 | 0.00 | 0.00 | 0.00 | 40 | 1007.1 |
| 20260509062748 | 62 | 328 | 5.2 | 8.7 | 0.00 | 0.00 | 0.00 | 40 | 1008.1 |
| 20260509062238 | 62 | 338 | 6.1 | 10.4 | 0.00 | 0.00 | 0.00 | 40 | 1008.1 |
| 20260509061748 | 62 | 340 | 6.1 | 10.4 | 0.00 | 0.00 | 0.00 | 40 | 1008.1 |
| 20260509061607 | 62 | 338 | 7.0 | 10.4 | 0.00 | 0.00 | 0.00 | 40 | 1007.0 |
| 20260509061231 | 62 | 349 | 7.8 | 11.3 | 0.00 | 0.00 | 0.00 | 40 | 1008.1 |
| 20260509060801 | 62 | 344 | 7.0 | 11.3 | 0.00 | 0.00 | 0.00 | 40 | 1008.2 |
| 20260509060311 | 62 | 329 | 7.8 | 12.2 | 0.00 | 0.00 | 0.00 | 40 | 1008.1 |
| 20260509060012 | 62 | 327 | 7.0 | 12.2 | 0.00 | 0.00 | 0.00 | 40 | 1007.0 |
| 20260509055728 | 62 | 347 | 7.8 | 12.2 | 0.00 | 0.00 | 0.00 | 40 | 1008.1 |
| 20260509055240 | 62 | 340 | 7.8 | 11.3 | 0.00 | 0.00 | 0.00 | 40 | 1008.1 |
| 20260509054724 | 63 | 329 | 7.8 | 11.3 | 0.00 | 0.00 | 0.00 | 40 | 1008.0 |
| 20260509054509 | 62 | 326 | 7.0 | 12.2 | 0.00 | 0.00 | 0.00 | 40 | 1007.0 |
| 20260509054420 | 63 | 323 | 7.8 | 12.2 | 0.00 | 0.00 | 0.00 | 40 | 1008.0 |
| 20260509053727 | 62 | 304 | 8.7 | 11.3 | 0.00 | 0.00 | 0.00 | 40 | 1008.0 |
| 20260509053238 | 62 | 330 | 7.8 | 11.3 | 0.00 | 0.00 | 0.00 | 40 | 1007.9 |
| 20260509053052 | 62 | 331 | 7.8 | 11.3 | 0.00 | 0.00 | 0.00 | 40 | 1006.8 |
| 20260509052721 | 62 | 336 | 7.0 | 9.6 | 0.00 | 0.00 | 0.00 | 41 | 1007.9 |
| 20260509052250 | 62 | 327 | 7.0 | 9.6 | 0.00 | 0.00 | 0.00 | 41 | 1007.9 |
| 20260509051740 | 62 | 318 | 6.1 | 9.6 | 0.00 | 0.00 | 0.00 | 40 | 1007.8 |
| 20260509051513 | 62 | 317 | 6.1 | 9.6 | 0.00 | 0.00 | 0.00 | 41 | 1006.7 |
| 20260509051224 | 62 | 311 | 7.0 | 11.3 | 0.00 | 0.00 | 0.00 | 40 | 1007.8 |
| 20260509050734 | 62 | 326 | 7.0 | 11.3 | 0.00 | 0.00 | 0.00 | 41 | 1007.7 |
| 20260509050245 | 62 | 311 | 7.8 | 10.4 | 0.00 | 0.00 | 0.00 | 41 | 1007.7 |
| 20260509050013 | 62 | 314 | 7.0 | 10.4 | 0.00 | 0.00 | 0.00 | 41 | 1006.8 |
| 20260509045729 | 63 | 310 | 6.1 | 8.7 | 0.00 | 0.00 | 0.00 | 41 | 1007.8 |
| 20260509045240 | 63 | 311 | 6.1 | 7.8 | 0.00 | 0.00 | 0.00 | 41 | 1007.7 |
| 20260509044725 | 63 | 298 | 6.1 | 7.8 | 0.00 | 0.00 | 0.00 | 41 | 1007.7 |
| 20260509044517 | 62 | 315 | 6.1 | 7.8 | 0.00 | 0.00 | 0.00 | 40 | 1006.6 |
| 20260509044234 | 63 | 321 | 5.2 | 8.7 | 0.00 | 0.00 | 0.00 | 40 | 1007.7 |